CZ-3A DEB, 35563

Orbit data source: Space-Track

CZ-3A DEB, 35563 is space debris in HEO originally from a launch on Fri, 02 Feb 2007 UTC launched from the Xichang Space Center, China (XSC). Debris objects in space refer to the collection of defunct objects orbiting the Earth. Examples of debris include non-operational satellites, rocket bodies, and fragments generated from explosions, collisions, or faulty payload assembly.

Loading next visibility...
Identifier
35563, 2007-003X
Orbit
HEO
Country
Flag of CNCN / PRC
Related business
Manufacturer
Unknown
Mission
Spacecraft
Bus & Motor
Unknown
Mass
Unknown
Launch date (UTC)
2007-02-02 (19 years ago)
Launch vehicle
Unknown
Launch site
Xichang Space Center, China (XSC)
Object type
Payload
Rocket body
Debris
Shape & HBR
Unknown shape, 0.2 m
Radar Cross Section
Small (<0.1 m²)

Expand to show TLE details & history
Last TLE update: 3 days ago

TLE from 3 days ago
0 CZ-3A DEB
1 35563U 07003X   26033.79241448  .00000123  00000-0  24395-2 0  9996
2 35563  22.0537 206.5257 7454880  22.1101   0.3471  1.89955057 13528
Epoch: 2026-02-02T19:01Z
TLE epoch observation values (Epoch: 2026-02-02T19:01:04.611Z)
Latitude
9.5511°
Longitude
172.67103°
Altitude
666.685 km
Speed
9.934 km/s
True Right ascension
15h 23m 41s
True Declination
9° 29' 39"
Sunlit
Object was in daylight at epoch
Visualization orbit readout
Latitude
Unknown
Longitude
Unknown
Altitude
Unknown
Speed
Unknown
Apparent Right ascension
Unknown
Apparent Declination
Unknown
Sunlit
N/A
Visualization observer readout
Local Sidereal Time
15:19:51
Azimuth
Unknown
Elevation
Unknown
Doppler factor
Unknown
Orbital elements
Apogee altitude
41,700.509 km
Perigee altitude
632.276 km
Semi-major axis
27,544.53 km
Eccentricity
0.74549
Inclination
22.0537°
RAAN
206.5257°
Arg. of periapsis
22.1101°
True anomaly
3.56953°
Mean anomaly
0.3471°
Eccentric anomaly
1.36341°
Mean motion
0.47478 °/min
Orbital period
758.25 mins
BSTAR
0.0024395
Loading maneuver chart data...
Computing Atmospheric mass density...
Loading historical data...
Loading historical data...
Loading historical data...
Loading historical data...
Loading historical data...
Loading historical data...
Loading historical data...

Documentation

Showing up to 5 results
|